Eagle River, WI

5:55 AM CST on December 06, 2016 (GMT -0600)
Eagle River Union

Weather History for KEGV - October, 2013

Change the Weather History Date:

Thursday, October 10, 2013

  Actual Average Record
Temperature  
Mean Temperature 52 °F -  
Max Temperature 70 °F 51 °F 75 °F (2011)
Min Temperature 34 °F 31 °F 24 °F (2000)
Degree Days  
Heating Degree Days 13    
Growing Degree Days 2 (Base 50)    
Moisture  
Dew Point 41 °F    
Average Humidity 70    
Maximum Humidity 100    
Minimum Humidity 32    
Precipitation  
Precipitation 0.00 in - - ()
Sea Level Pressure  
Sea Level Pressure 30.10 in    
Wind  
Wind Speed 2 mph (SSE)    
Max Wind Speed 12 mph    
Max Gust Speed 17 mph    
Visibility 7 miles    
Events Fog    
Averages and records for this station are not official NWS values.
T = Trace of Precipitation, MM = Missing Value Source: NWS Daily Summary

Daily Weather History Graph

Daily Weather History Graph

Search for Another Location

Airport or City:

Trip Planner

Search our weather history database for the weather conditions in past years. The results will help you decide how hot, cold, wet, or windy it might be!

Date:

Astronomy

Oct. 10, 2013 Rise Set
Actual Time 7:07 AM CDT 6:19 PM CDT
Civil Twilight 6:37 AM CDT 6:49 PM CDT
Nautical Twilight 6:03 AM CDT 7:24 PM CDT
Astronomical Twilight 5:28 AM CDT 7:58 PM CDT
Moon 1:11 PM CDT (10/10) 10:46 PM CDT (10/10)
Length of Visible Light 12h 11m
Length of Day
11h 12m
Waxing Crescent, 36% of the Moon is Illuminated
Oct 10
Waxing Crescent
Oct 11
First Quarter
Oct 18
Full
Oct 26
Last Quarter
Nov 3
New

Hourly Weather History & Observations

Time (CDT) Temp. Dew Point Humidity Pressure Visibility Wind Dir Wind Speed Gust Speed Precip Events Conditions
12:15 AM 44.8 °F 44.2 °F 98% 30.13 in 10.0 mi Calm Calm - N/A   Clear
12:35 AM 44.4 °F 42.6 °F 93% 30.13 in 10.0 mi Calm Calm - N/A   Clear
12:55 AM 43.9 °F 43.0 °F 97% 30.13 in 10.0 mi Calm Calm - N/A   Clear
1:15 AM 43.2 °F 42.8 °F 99% 30.14 in 4.0 mi Calm Calm - N/A   Clear
1:35 AM 41.7 °F 41.7 °F 100% 30.14 in 0.2 mi Calm Calm - N/A Fog Fog
1:55 AM 43.0 °F 43.0 °F 100% 30.14 in 7.0 mi Calm Calm - N/A   Clear
2:15 AM 40.1 °F 40.1 °F 100% 30.14 in 0.5 mi Calm Calm - N/A Fog Fog
2:35 AM 40.3 °F 40.3 °F 100% 30.14 in 0.8 mi Calm Calm - N/A   Mist
2:55 AM 38.3 °F 38.3 °F 100% 30.14 in 0.2 mi Calm Calm - N/A Fog Fog
3:15 AM 40.3 °F 40.3 °F 100% 30.14 in 2.0 mi Calm Calm - N/A   Clear
3:35 AM 40.1 °F 40.1 °F 100% 30.14 in 0.5 mi Calm Calm - N/A Fog Fog
3:55 AM 38.7 °F 38.7 °F 100% 30.14 in 0.5 mi Calm Calm - N/A Fog Fog
4:15 AM 38.1 °F 38.1 °F 100% 30.14 in 0.5 mi Calm Calm - N/A Fog Fog
4:35 AM 37.8 °F 37.8 °F 100% 30.14 in 0.5 mi Calm Calm - N/A Fog Fog
4:55 AM 38.3 °F 38.3 °F 100% 30.15 in 0.8 mi Calm Calm - N/A   Mist
5:15 AM 38.8 °F 38.8 °F 100% 30.15 in 0.5 mi Calm Calm - N/A Fog Fog
5:35 AM 37.6 °F 37.6 °F 100% 30.14 in 2.5 mi Calm Calm - N/A   Clear
5:55 AM 36.3 °F 36.3 °F 100% 30.14 in 0.8 mi Calm Calm - N/A   Mist
6:15 AM 37.4 °F 37.4 °F 100% 30.15 in 0.8 mi Calm Calm - N/A   Mist
6:35 AM 36.9 °F 36.9 °F 100% 30.15 in 0.2 mi Calm Calm - N/A Fog Fog
6:55 AM 35.2 °F 35.2 °F 100% 30.15 in 0.2 mi Calm Calm - N/A Fog Fog
7:15 AM 35.6 °F 35.6 °F 100% 30.15 in 0.2 mi Calm Calm - N/A Fog Fog
7:35 AM 34.7 °F 34.7 °F 100% 30.14 in 0.2 mi Calm Calm - N/A Fog Fog
7:55 AM 36.3 °F 36.3 °F 100% 30.15 in 0.5 mi Calm Calm - N/A Fog Fog
8:15 AM 41.0 °F 41.0 °F 100% 30.15 in 7.0 mi Calm Calm - N/A   Clear
8:35 AM 45.5 °F 45.5 °F 100% 30.14 in 10.0 mi Calm Calm - N/A   Clear
8:55 AM 47.5 °F 47.5 °F 100% 30.14 in 10.0 mi Calm Calm - N/A   Clear
9:15 AM 50.5 °F 48.0 °F 91% 30.14 in 10.0 mi Calm Calm - N/A   Clear
9:35 AM 54.5 °F 45.3 °F 71% 30.14 in 10.0 mi SSE 3.5 mph - N/A   Clear
9:55 AM 56.7 °F 45.1 °F 65% 30.15 in 10.0 mi SSE 3.5 mph - N/A   Clear
10:15 AM 59.0 °F 45.3 °F 60% 30.14 in 10.0 mi Calm Calm - N/A   Clear
10:35 AM 60.1 °F 44.6 °F 57% 30.14 in 10.0 mi South 3.5 mph - N/A   Clear
10:55 AM 63.3 °F 44.6 °F 50% 30.13 in 10.0 mi Calm Calm - N/A   Clear
11:15 AM 65.1 °F 42.8 °F 44% 30.13 in 10.0 mi South 4.6 mph - N/A   Clear
11:35 AM 66.6 °F 41.9 °F 41% 30.13 in 10.0 mi South 5.8 mph - N/A   Clear
11:55 AM 66.9 °F 41.9 °F 40% 30.12 in 10.0 mi SSE 6.9 mph - N/A   Clear
12:15 PM 66.9 °F 41.4 °F 39% 30.11 in 10.0 mi South 9.2 mph - N/A   Clear
12:35 PM 67.1 °F 41.0 °F 39% 30.10 in 10.0 mi South 5.8 mph - N/A   Clear
12:55 PM 67.3 °F 41.2 °F 39% 30.10 in 10.0 mi SSE 8.1 mph - N/A   Clear
1:15 PM 67.8 °F 40.8 °F 37% 30.09 in 10.0 mi South 6.9 mph - N/A   Clear
1:35 PM 69.1 °F 40.3 °F 35% 30.08 in 10.0 mi SSE 8.1 mph - N/A   Clear
1:55 PM 70.0 °F 39.2 °F 33% 30.08 in 10.0 mi SSE 9.2 mph 17.3 mph N/A   Clear
2:15 PM 68.7 °F 39.4 °F 34% 30.08 in 10.0 mi South 9.2 mph - N/A   Clear
2:35 PM 69.1 °F 37.9 °F 32% 30.07 in 10.0 mi South 5.8 mph - N/A   Clear
2:55 PM 68.4 °F 37.8 °F 33% 30.07 in 10.0 mi South 11.5 mph 16.1 mph N/A   Clear
3:15 PM 68.9 °F 38.3 °F 33% 30.07 in 10.0 mi South 5.8 mph - N/A   Clear
3:35 PM 69.1 °F 38.5 °F 33% 30.06 in 10.0 mi South 9.2 mph - N/A   Clear
3:55 PM 68.4 °F 39.0 °F 34% 30.06 in 10.0 mi SSE 6.9 mph - N/A   Clear
4:15 PM 68.0 °F 38.5 °F 34% 30.06 in 10.0 mi South 9.2 mph - N/A   Clear
4:35 PM 68.0 °F 38.1 °F 33% 30.06 in 10.0 mi SSE 8.1 mph - N/A   Clear
4:55 PM 67.5 °F 38.3 °F 34% 30.06 in 10.0 mi South 8.1 mph - N/A   Clear
5:15 PM 67.1 °F 39.0 °F 36% 30.05 in 10.0 mi South 6.9 mph - N/A   Clear
5:35 PM 65.8 °F 39.0 °F 37% 30.05 in 10.0 mi South 8.1 mph - N/A   Clear
5:55 PM 64.4 °F 38.8 °F 39% 30.05 in 10.0 mi South 5.8 mph - N/A   Clear
6:15 PM 62.4 °F 39.6 °F 43% 30.06 in 10.0 mi South 4.6 mph - N/A   Clear
6:35 PM 60.8 °F 40.3 °F 47% 30.06 in 10.0 mi SSE 4.6 mph - N/A   Clear
6:55 PM 60.1 °F 40.6 °F 49% 30.06 in 10.0 mi SSE 4.6 mph - N/A   Clear
7:15 PM 58.6 °F 41.0 °F 52% 30.06 in 10.0 mi SSE 4.6 mph - N/A   Clear
7:35 PM 57.7 °F 41.4 °F 54% 30.06 in 10.0 mi SSE 3.5 mph - N/A   Clear
7:55 PM 57.4 °F 41.9 °F 56% 30.05 in 10.0 mi SSE 4.6 mph - N/A   Clear
8:15 PM 56.7 °F 41.9 °F 58% 30.05 in 10.0 mi SE 3.5 mph - N/A   Clear
8:35 PM 53.8 °F 42.3 °F 65% 30.06 in 10.0 mi Calm Calm - N/A   Clear
8:55 PM 52.3 °F 41.7 °F 67% 30.06 in 10.0 mi Calm Calm - N/A   Clear
9:15 PM 49.6 °F 41.9 °F 75% 30.06 in 10.0 mi Calm Calm - N/A   Clear
9:35 PM 47.1 °F 41.7 °F 81% 30.06 in 10.0 mi Calm Calm - N/A   Clear
9:55 PM 46.9 °F 41.4 °F 81% 30.06 in 10.0 mi Calm Calm - N/A   Clear
10:15 PM 47.5 °F 41.7 °F 80% 30.06 in 10.0 mi Calm Calm - N/A   Clear
10:35 PM 48.4 °F 42.4 °F 80% 30.06 in 10.0 mi SE 3.5 mph - N/A   Clear
10:55 PM 50.9 °F 43.0 °F 74% 30.06 in 10.0 mi SE 3.5 mph - N/A   Clear
11:15 PM 51.4 °F 43.7 °F 75% 30.07 in 10.0 mi SE 3.5 mph - N/A   Clear
11:35 PM 49.1 °F 43.2 °F 80% 30.07 in 10.0 mi SE 4.6 mph - N/A   Clear
11:55 PM 50.7 °F 44.2 °F 78% 30.07 in 10.0 mi SE 3.5 mph - N/A   Clear